COSMOS 1275 DEB, 13026

Orbit data source: Space-Track

COSMOS 1275 DEB, 13026 is space debris in LEO originally from a launch on Thu, 04 Jun 1981 UTC launched from the Plesetsk Missile And Space Complex (PKMTR). Debris objects in space refer to the collection of defunct objects orbiting the Earth. Examples of debris include non-operational satellites, rocket bodies, and fragments generated from explosions, collisions, or faulty payload assembly.

Loading next visibility...
Identifier
13026, 1981-053EX
Orbit
LEO
Country
Flag of CISCIS
Related business
Manufacturer
Unknown
Mission
Spacecraft
Bus & Motor
Unknown
Mass
Unknown
Launch date (UTC)
1981-06-04 (44 years ago)
Launch vehicle
Unknown
Launch site
Plesetsk Missile And Space Complex (PKMTR)
Object type
Payload
Rocket body
Debris
Shape & HBR
Unknown shape, 0.1 m
Radar Cross Section
Small (<0.1 m²)

Expand to show TLE details & history
Last TLE update: 7 hours ago

TLE from 7 hours ago
0 COSMOS 1275 DEB
1 13026U 81053EX  25291.27918581  .00037806  00000-0  55558-2 0  9993
2 13026  82.9203  34.5212 0008952 233.1501 126.8891 14.75258020259751
Epoch: 2025-10-18T06:42Z
TLE epoch observation values (Epoch: 2025-10-18T06:42:01.653Z)
Latitude
Longitude
-92.99817°
Altitude
651.149 km
Speed
7.53 km/s
True Right ascension
02h 18m 05s
True Declination
0° 00' 00"
Sunlit
Object was in full shadow at epoch
Visualization orbit readout
Latitude
Unknown
Longitude
Unknown
Altitude
Unknown
Speed
Unknown
Apparent Right ascension
Unknown
Apparent Declination
Unknown
Sunlit
N/A
Visualization observer readout
Local Sidereal Time
08:15:40
Azimuth
Unknown
Elevation
Unknown
Doppler factor
Unknown
Orbital elements
Apogee altitude
647.629 km
Perigee altitude
635.061 km
Semi-major axis
7,019.482 km
Eccentricity
0.0009
Inclination
82.9203°
RAAN
34.5212°
Arg. of periapsis
233.1501°
True anomaly
126.97109°
Mean anomaly
126.8891°
Eccentric anomaly
126.9301°
Mean motion
3.6905 °/min
Orbital period
97.55 mins
BSTAR
0.0055558
Loading maneuver chart data...
Computing Atmospheric mass density...

Documentation

Showing up to 5 results
|